Wind_Speed
17 9 4 13 9 9 10 7 8 5 3 3 11 6 10 16 23 20 18 16 12 20 21 23 19 12 9 10 12 23 22 23 26 17 22 24 26 23 22 23 25 29 24 36
9 7 8 5 3 7 7 9 11 9 2 5 12 20 25 25 11 21 23 21 23 27 17 21 22 17 12 8 7 5 20 18 21 26 24 18 17 17 25 27 27 17 26 41
9 13 3 5 9 7 10 3 8 11 12 11 3 17 27 29 18 21 20 23 24 23 27 23 24 27 19 12 5 5 8 16 20 19 18 20 23 24 23 20 15 20 36 42
6 9 3 7 5 8 7 8 8 11 12 12 12 5 11 15 15 17 19 22 23 23 23 26 24 24 25 26 6 1 5 6 12 18 22 19 22 25 26 23 25 31 28 27
6 2 1 9 11 6 13 5 11 10 13 12 12 10 8 22 11 14 19 19 21 23 24 25 25 23 26 24 25 23 11 10 12 5 14 15 21 22 17 19 19 13 18 20
10 3 3 8 8 8 8 11 16 15 11 5 4 8 7 7 9 12 16 17 18 21 23 23 25 28 24 24 25 23 23 19 11 4 7 10 12 14 14 16 13 13 14 12
7 9 4 4 12 9 6 9 9 6 4 4 15 8 9 9 10 13 13 17 17 19 21 23 25 25 27 24 19 19 13 15 10 5 3 3 4 6 6 14 15 19 18 17
6 9 5 4 7 9 9 6 6 12 10 9 15 11 11 14 14 16 17 18 18 19 20 21 22 24 24 26 24 19 18 17 17 11 12 12 12 12 8 14 16 11 17 18
9 6 3 3 7 8 10 9 11 9 14 10 5 5 4 12 11 13 14 17 17 18 19 20 20 20 23 24 28 25 18 14 12 15 15 18 20 20 18 13 13 15 17 18
9 7 2 3 6 9 2 7 8 4 7 13 15 8 5 8 8 10 14 15 14 15 16 17 19 21 20 21 22 24 24 24 22 17 18 19 19 18 11 14 16 17 16 13
10 7 8 9 3 10 11 11 9 7 7 10 9 7 8 7 8 9 12 11 11 15 16 16 16 17 19 20 21 23 23 24 26 25 21 17 17 14 16 16 19 15 11 7
8 4 7 15 9 10 8 5 9 4 11 10 10 10 10 9 11 8 11 13 13 12 11 14 16 18 18 20 22 23 24 25 26 30 24 22 18 17 20 18 13 12 11 6
9 5 6 7 10 3 9 9 7 9 4 10 9 7 6 10 15 15 12 12 12 11 12 12 14 17 20 21 24 24 25 27 28 27 29 28 28 20 19 18 12 9 6 6
4 3 6 8 14 11 8 10 11 9 7 11 12 16 15 13 9 7 9 5 11 13 11 12 14 17 20 21 24 26 27 29 30 30 29 28 32 23 23 16 15 10 6 5
4 4 7 10 13 14 14 12 12 11 9 8 13 11 15 13 13 17 20 12 11 11 18 17 19 22 23 24 25 25 28 29 33 36 33 33 30 29 24 21 18 13 12 8
3 4 9 11 15 12 10 14 13 8 8 11 9 9 11 15 13 18 21 19 18 17 19 25 27 26 26 25 26 26 27 28 33 33 37 32 32 29 29 24 22 16 13 10
4 5 7 9 11 14 11 11 9 8 11 12 11 11 17 15 16 18 16 22 20 21 23 25 28 29 30 29 30 32 29 32 34 30 31 31 27 24 27 22 25 20 19 15
4 5 5 7 10 9 9 8 8 9 11 13 11 13 17 19 22 21 14 17 22 26 27 27 28 30 33 33 31 29 27 35 29 26 26 30 32 30 28 27 22 17 7 15
1 5 5 5 8 11 12 11 9 8 10 15 13 16 20 22 23 11 21 21 23 23 24 25 25 29 29 25 23 25 27 26 30 31 30 29 39 34 30 17 7 5 6 14
2 2 3 7 7 5 9 10 13 12 5 15 17 19 22 23 12 13 32 30 26 25 25 24 26 25 24 27 19 24 25 25 26 29 34 38 30 26 10 2 9 10 7 5
3 5 8 8 7 4 10 16 12 6 8 19 20 20 21 15 19 23 24 24 23 24 24 26 24 25 25 24 29 23 30 27 29 31 31 26 20 6 8 6 6 7 12 16
3 5 7 6 7 1 16 7 7 7 15 17 18 20 21 22 23 24 25 26 27 26 26 25 24 23 23 25 17 24 29 25 27 32 31 14 9 7 4 4 8 9 13 14
1 2 4 4 7 9 7 7 8 10 13 17 20 21 22 24 25 26 27 28 28 28 27 24 24 26 22 21 23 33 24 24 23 34 28 14 8 8 8 11 12 9 11 12
3 7 2 6 5 14 11 8 8 12 15 18 19 22 24 26 27 28 28 28 28 25 25 26 24 23 27 27 20 22 21 23 22 23 17 16 15 14 17 14 11 9 6 8
9 1 4 9 8 9 7 14 14 16 16 19 22 23 25 27 28 29 27 25 26 26 24 26 27 26 27 22 25 24 17 22 20 17 14 14 13 9 9 15 18 18 17 12
7 6 4 4 8 7 13 15 15 17 20 21 24 26 26 27 30 31 29 30 29 28 27 25 24 27 21 21 16 25 17 21 15 14 15 10 7 7 6 13 17 22 23 23
Wind_Direction
206 261 300 20 360 334 315 322 284 266 16 325 289 314 53 37 65 50 45 32 24 52 36 20 2 324 261 244 241 225 219 218 212 218 234 239 231 238 242 236 237 235 240 296
239 225 52 355 330 303 282 275 13 315 131 251 281 31 24 78 318 62 54 63 33 37 75 49 24 28 26 320 269 243 223 221 227 230 224 235 248 247 236 235 238 245 259 290
289 67 81 286 279 277 242 8 353 305 299 257 216 44 357 308 76 68 51 69 64 44 36 43 38 28 38 39 24 286 259 247 247 245 244 238 248 248 246 260 265 281 264 276
308 80 313 282 257 321 22 15 309 303 291 284 192 127 194 284 83 74 55 42 58 59 40 34 38 34 28 30 33 238 245 255 270 261 245 233 246 248 251 256 279 282 260 283
77 235 289 292 25 342 308 355 298 285 278 294 147 112 312 328 85 73 63 45 42 52 48 31 32 35 36 31 20 26 9 265 240 265 254 250 255 250 310 320 288 298 310 292
298 63 277 344 304 260 301 283 274 264 254 239 132 140 213 223 67 76 71 53 40 44 47 34 25 36 32 27 33 30 20 24 27 330 325 306 277 283 299 296 306 288 278 305
194 193 150 250 295 210 239 318 318 250 327 89 243 305 122 121 81 79 65 55 48 43 43 37 30 24 22 21 18 31 52 45 49 64 22 345 304 279 328 306 284 285 294 278
250 154 154 28 357 338 313 318 11 332 335 336 218 20 105 83 65 70 56 51 38 43 41 42 32 30 24 20 20 24 41 49 39 10 3 343 333 324 313 298 313 321 306 315
347 54 98 87 326 329 357 14 336 310 292 269 101 28 263 96 58 40 55 47 33 42 39 34 40 32 28 27 24 25 18 18 2 351 351 346 339 329 335 335 332 327 330 333
357 306 130 14 281 221 349 311 343 329 330 336 330 121 197 46 29 23 37 33 31 28 34 34 35 33 27 23 19 25 22 19 11 1 355 355 344 341 326 324 331 339 345 348
26 323 313 279 26 5 345 339 357 349 313 317 337 21 93 71 64 11 16 18 35 22 20 28 28 28 22 17 17 16 13 4 9 4 359 355 345 330 319 333 333 342 346 2
45 315 306 308 334 38 323 9 37 357 330 336 317 306 71 66 70 43 18 19 17 7 20 13 15 13 10 9 8 5 0 4 358 1 356 350 337 334 325 323 322 337 343 357
350 23 309 289 140 67 358 5 333 326 294 283 297 306 151 84 2 20 8 7 350 357 27 8 4 0 359 0 360 358 356 355 353 349 341 341 340 321 317 316 314 324 317 328
324 303 293 295 311 327 312 311 310 311 292 308 307 325 342 47 52 25 338 344 347 334 358 5 355 353 351 357 356 348 344 339 337 343 338 336 329 330 323 307 304 289 280 267
27 289 312 309 316 305 293 303 318 309 331 334 329 346 16 7 353 1 38 11 327 328 351 355 355 352 346 342 338 334 334 334 331 332 330 331 331 318 325 311 301 282 272 248
40 303 309 301 284 292 325 297 296 29 2 318 308 40 8 38 348 352 348 14 21 12 356 345 347 343 336 333 333 333 332 331 331 326 326 321 323 321 319 313 302 285 271 257
313 343 316 297 326 320 284 29 37 356 354 342 331 11 6 359 356 346 18 19 8 355 347 336 333 329 330 329 328 328 325 328 323 321 325 324 322 329 321 314 311 286 261 256
305 311 286 289 311 305 105 52 39 20 3 350 359 3 1 357 350 353 24 9 343 340 337 335 334 330 327 323 320 320 320 324 321 323 330 326 317 319 319 314 306 358 103 143
60 300 319 295 318 317 115 49 23 7 28 37 14 353 343 336 327 295 19 353 342 339 336 332 330 327 324 330 329 325 327 321 317 332 333 320 320 324 325 333 344 101 89 33
186 251 262 315 290 304 45 21 352 318 293 17 351 341 338 338 327 340 341 336 337 335 329 330 330 330 338 343 339 340 343 344 342 334 329 326 325 323 337 50 97 95 84 41
223 264 269 285 289 100 30 344 327 289 4 340 344 345 343 338 329 322 324 327 326 322 325 331 333 335 341 337 340 335 333 339 340 348 350 338 335 31 61 77 76 71 68 55
327 322 298 306 309 10 7 341 25 341 340 342 343 337 332 326 324 326 329 328 324 330 328 329 333 333 333 342 352 358 345 340 345 4 5 355 26 60 55 89 49 72 56 41
260 28 351 352 334 13 25 35 9 359 342 338 332 330 328 327 327 326 326 325 323 321 322 326 327 336 338 328 345 339 325 338 357 359 350 348 357 16 60 73 68 73 65 54
199 118 248 334 117 356 358 25 8 348 334 327 326 329 328 324 323 321 317 319 329 344 343 344 335 336 333 328 346 352 337 349 350 358 6 35 42 56 51 41 48 43 86 58
329 270 309 289 27 342 53 7 347 333 328 331 326 323 326 322 315 316 327 331 327 331 335 332 334 327 330 325 335 336 338 350 1 30 34 52 59 56 64 60 54 40 38 34
1 20 337 14 10 344 332 337 333 335 330 325 325 325 316 323 330 331 335 334 330 323 324 323 320 317 317 334 340 339 345 2 16 32 39 38 23 41 50 50 42 42 55 56
Height
1493 1493 1489 1486 1485 1483 1483 1482 1482 1472 1469 1477 1477 1472 1468 1470 1470 1475 1476 1479 1475 1477 1477 1478 1479 1477 1476 1477 1479 1479 1480 1484 1489 1489 1488 1490 1492 1495 1500 1502 1503 1501 1502 1497
1492 1491 1487 1487 1487 1486 1483 1483 1481 1472 1469 1475 1473 1493 1491 1491 1482 1481 1482 1482 1482 1481 1449 1481 1484 1479 1476 1477 1479 1481 1482 1483 1484 1486 1488 1491 1490 1492 1491 1495 1494 1497 1496 1493
1488 1489 1490 1489 1484 1485 1480 1487 1488 1487 1474 1469 1473 1518 1515 1497 1481 1486 1487 1486 1488 1490 1487 1489 1487 1483 1481 1479 1480 1481 1482 1483 1484 1485 1487 1488 1487 1486 1482 1484 1491 1496 1481 1486
1485 1488 1491 1487 1485 1484 1487 1480 1481 1481 1480 1484 1463 1536 1528 1504 1484 1489 1492 1491 1491 1493 1495 1493 1491 1488 1484 1483 1481 1480 1480 1481 1483 1483 1483 1484 1483 1481 1476 1477 1473 1484 1479 1480
1493 1489 1490 1490 1488 1487 1491 1483 1482 1477 1479 1473 1472 1503 1532 1513 1491 1493 1495 1496 1495 1496 1499 1499 1496 1494 1492 1488 1484 1482 1480 1480 1480 1480 1481 1480 1483 1480 1478 1475 1477 1473 1472 1474
1489 1489 1490 1489 1488 1484 1483 1484 1477 1474 1475 1492 1483 1495 1546 1531 1493 1493 1496 1498 1499 1499 1501 1504 1501 1498 1495 1492 1493 1489 1486 1484 1482 1483 1483 1482 1479 1479 1476 1473 1474 1472 1475 1475
1488 1488 1486 1489 1486 1478 1479 1485 1497 1500 1520 1515 1489 1485 1499 1493 1492 1497 1499 1499 1501 1502 1504 1506 1505 1503 1500 1497 1492 1488 1487 1486 1487 1486 1483 1480 1477 1476 1474 1473 1473 1474 1473 1468
1491 1506 1486 1489 1490 1492 1487 1489 1507 1529 1515 1497 1477 1510 1503 1493 1497 1500 1501 1503 1506 1506 1507 1508 1509 1508 1506 1501 1496 1494 1492 1489 1487 1485 1483 1482 1480 1477 1476 1474 1472 1470 1466 1462
1501 1497 1487 1491 1491 1491 1494 1499 1490 1503 1487 1496 1509 1520 1503 1495 1500 1503 1503 1507 1510 1511 1512 1512 1511 1511 1510 1506 1501 1497 1495 1494 1491 1488 1485 1482 1479 1476 1474 1472 1470 1467 1461 1457
1502 1514 1488 1489 1489 1488 1493 1489 1505 1498 1522 1527 1496 1532 1521 1508 1510 1507 1507 1511 1513 1513 1513 1514 1513 1514 1513 1510 1506 1502 1498 1496 1493 1489 1486 1483 1480 1477 1474 1472 1468 1463 1459 1456
1507 1510 1501 1488 1494 1500 1498 1501 1501 1506 1511 1526 1526 1517 1503 1510 1513 1515 1513 1515 1515 1515 1516 1516 1516 1516 1515 1513 1509 1504 1500 1496 1493 1491 1488 1484 1481 1478 1474 1470 1467 1462 1460 1458
1516 1517 1521 1507 1493 1496 1499 1503 1510 1531 1532 1522 1526 1521 1506 1511 1516 1519 1519 1519 1518 1518 1517 1517 1517 1518 1517 1514 1509 1506 1502 1497 1493 1490 1487 1484 1480 1477 1473 1470 1466 1463 1461 1460
1524 1519 1528 1507 1501 1501 1505 1503 1507 1511 1514 1528 1534 1521 1506 1511 1517 1519 1521 1521 1520 1519 1518 1518 1518 1518 1517 1514 1511 1508 1503 1499 1495 1490 1485 1481 1478 1474 1471 1468 1465 1462 1462 1460
1527 1525 1530 1536 1521 1512 1517 1511 1508 1512 1525 1522 1520 1516 1508 1517 1520 1522 1521 1520 1520 1520 1518 1518 1518 1518 1516 1512 1509 1507 1503 1498 1493 1488 1484 1480 1475 1471 1468 1465 1463 1460 1459 1459
1529 1532 1522 1517 1513 1511 1511 1510 1508 1512 1513 1527 1521 1520 1520 1521 1522 1521 1523 1522 1522 1521 1521 1519 1518 1517 1515 1512 1509 1505 1501 1497 1492 1487 1482 1476 1472 1468 1465 1461 1460 1458 1457 1456
1529 1535 1525 1525 1510 1503 1511 1508 1507 1510 1516 1518 1517 1523 1524 1527 1528 1526 1524 1524 1526 1523 1523 1523 1519 1517 1515 1511 1507 1502 1498 1495 1490 1484 1478 1474 1469 1464 1460 1459 1456 1454 1453 1453
1532 1533 1533 1531 1512 1513 1520 1518 1518 1520 1519 1521 1527 1526 1525 1527 1527 1527 1526 1528 1530 1527 1526 1523 1520 1517 1513 1508 1504 1500 1496 1491 1486 1481 1475 1470 1466 1461 1457 1455 1453 1450 1447 1446
1535 1534 1531 1530 1520 1532 1520 1520 1520 1525 1523 1524 1526 1528 1530 1532 1532 1531 1530 1531 1532 1528 1525 1522 1518 1514 1509 1504 1500 1496 1491 1487 1482 1478 1473 1467 1461 1460 1455 1451 1448 1440 1434 1440
1534 1535 1533 1535 1530 1518 1520 1528 1532 1533 1534 1535 1537 1538 1537 1537 1535 1531 1533 1533 1531 1527 1524 1520 1516 1512 1506 1502 1498 1493 1488 1485 1479 1476 1471 1464 1458 1453 1450 1448 1444 1443 1442 1446
1533 1536 1540 1536 1542 1541 1534 1532 1533 1531 1534 1543 1543 1542 1541 1539 1534 1532 1531 1529 1527 1526 1522 1517 1514 1509 1504 1500 1494 1491 1489 1482 1478 1475 1467 1459 1456 1453 1450 1448 1447 1446 1446 1442
1532 1531 1534 1530 1531 1531 1540 1537 1533 1538 1552 1546 1545 1544 1543 1542 1541 1536 1533 1529 1526 1522 1518 1515 1511 1507 1503 1498 1494 1489 1488 1481 1478 1471 1465 1460 1457 1452 1451 1450 1449 1449 1448 1447
1536 1539 1533 1527 1530 1542 1538 1537 1545 1550 1548 1548 1546 1545 1543 1541 1537 1534 1530 1526 1522 1519 1515 1512 1508 1505 1502 1499 1493 1490 1490 1484 1478 1471 1465 1461 1456 1452 1453 1451 1450 1449 1450 1450
1536 1536 1543 1543 1543 1540 1542 1543 1546 1547 1548 1547 1546 1544 1541 1538 1535 1532 1528 1524 1520 1516 1512 1509 1506 1503 1499 1495 1491 1487 1485 1483 1476 1468 1463 1460 1460 1457 1456 1455 1454 1455 1455 1455
1529 1535 1540 1543 1538 1540 1542 1544 1547 1548 1548 1546 1544 1541 1539 1536 1533 1529 1524 1520 1516 1512 1510 1507 1504 1500 1499 1497 1492 1487 1487 1481 1474 1467 1465 1464 1464 1463 1463 1461 1460 1459 1458 1457
1532 1538 1537 1538 1540 1544 1544 1547 1548 1547 1546 1544 1542 1540 1537 1534 1529 1525 1520 1517 1515 1512 1509 1506 1503 1499 1497 1495 1489 1487 1484 1480 1474 1471 1470 1469 1468 1467 1467 1465 1463 1462 1460 1459
1536 1541 1539 1542 1548 1549 1549 1549 1548 1546 1545 1542 1539 1537 1534 1529 1525 1522 1518 1516 1512 1509 1508 1504 1501 1497 1496 1494 1489 1486 1484 1478 1475 1475 1474 1473 1472 1470 1470 1469 1468 1466 1465 1463